STARLINK-36621, 67561

Orbit data source: Space-Track

STARLINK-36621, 67561 is a payload satellite owned by SpaceX/Seattle (US) in SSO that was launched on Sun, 25 Jan 2026 UTC via an FALCON 9 launch vehicle from the Air Force Western Test Range (AFWTR). Payload-class satellites include a variety of spacecraft equipped with specific instruments for various scientific and technological missions. These include communications satellites like Starlink; space stations such as the ISS; scientific satellites like the Hubble; Earth observation satellites from companies like Planet Labs, Umbra, and HawkEye 360; GPS; miniature CubeSats for education and research; and military/defense satellites.

Not visible in the next 10 days
Identifier
67561, 2026-016A
Orbit
SSO
Country
Flag of USUS
Related business
Manufacturer
SpaceX/Seattle
Mission
Operational spacecraft
Bus & Motor
STARLINK V2MO, Unknown motor
Mass
575 kg wet, ~530 kg dry
Launch date (UTC)
2026-01-25 (2 weeks ago)
Launch vehicle
FALCON 9
Launch site
Air Force Western Test Range (AFWTR)
Object type
Payload
Rocket body
Debris
Shape & HBR
Unknown shape, 17.7 m
Radar Cross Section
RCS unknown

Expand to show TLE details & history
Last TLE update: 10 hours ago

TLE from 10 hours ago
0 STARLINK-36621
1 67561U 26016A   26039.91670139 -.00047136  00000-0 -24633-3 0  9990
2 67561  97.2844  98.8896 0001345  91.2640  54.7106 15.80845799  3422
Epoch: 2026-02-08T22:00Z
TLE epoch observation values (Epoch: 2026-02-08T22:00:03.000Z)
Latitude
33.77203°
Longitude
174.73414°
Altitude
332.129 km
Speed
7.713 km/s
True Right ascension
18h 55m 03s
True Declination
33° 36' 12"
Sunlit
Object was in daylight at epoch
Visualization orbit readout
Latitude
Unknown
Longitude
Unknown
Altitude
Unknown
Speed
Unknown
Apparent Right ascension
Unknown
Apparent Declination
Unknown
Sunlit
N/A
Visualization observer readout
Local Sidereal Time
10:27:00
Azimuth
Unknown
Elevation
Unknown
Doppler factor
Unknown
Orbital elements
Apogee altitude
325.829 km
Perigee altitude
324.026 km
Semi-major axis
6,703.064 km
Eccentricity
0.00013
Inclination
97.2844°
RAAN
98.8896°
Arg. of periapsis
91.264°
True anomaly
54.72318°
Mean anomaly
54.7106°
Eccentric anomaly
54.71689°
Mean motion
3.95488 °/min
Orbital period
91.03 mins
BSTAR
-0.00024633
Loading maneuver chart data...
Computing Atmospheric mass density...
Loading historical data...
Loading historical data...
Loading historical data...
Loading historical data...
Loading historical data...
Loading historical data...
Loading historical data...

Documentation

Showing up to 5 results
|